Weather History for Milford, UT

Change the Weather History Date:

Tuesday, September 18, 2012

  Actual Average Record
Temperature  
Mean Temperature 62 °F -  
Max Temperature 84 °F 77 °F 90 °F (2010)
Min Temperature 39 °F 42 °F 28 °F (2003)
Degree Days  
Heating Degree Days 4    
Growing Degree Days 12 (Base 50)    
Moisture  
Dew Point 21 °F    
Average Humidity 23    
Maximum Humidity 53    
Minimum Humidity 4    
Precipitation  
Precipitation 0.00 in - - ()
Sea Level Pressure  
Sea Level Pressure 30.11 in    
Wind  
Wind Speed 5 mph (WNW)    
Max Wind Speed 12 mph    
Max Gust Speed -    
Visibility 10 miles    
Events      
Averages and records for this station are not official NWS values.
T = Trace of Precipitation, MM = Missing Value Source: NWS Daily Summary

Daily Weather History Graph

Daily Weather History Graph

Search for Another Location

Airport:

Trip Planner

Search our weather history database for the weather conditions in past years. The results will help you decide how hot, cold, wet, or windy it might be!

Date:

Astronomy

Sep. 18, 2012 Rise Set
Actual Time 7:16 AM MDT 7:34 PM MDT
Civil Twilight 6:50 AM MDT 8:00 PM MDT
Nautical Twilight 6:19 AM MDT 8:31 PM MDT
Astronomical Twilight 5:47 AM MDT 9:03 PM MDT
Moon 10:17 AM MDT (9/18) 9:03 PM MDT (9/18)
Length of Visible Light 13h 10m
Length of Day
12h 17m
Waxing Crescent, 9% of the Moon is Illuminated
Sep 18
Waxing Crescent
Sep 22
First Quarter
Sep 29
Full
Oct 8
Last Quarter
Oct 15
New

Hourly Weather History & Observations

Time (MDT) Temp. Windchill Dew Point Humidity Pressure Visibility Wind Dir Wind Speed Gust Speed Precip Events Conditions
12:52 AM 51.1 °F - 19.9 °F 29% 30.07 in 10.0 mi Calm Calm - N/A   Clear
1:52 AM 45.0 °F - 21.9 °F 40% 30.09 in 10.0 mi Calm Calm - N/A   Clear
2:52 AM 44.1 °F 40.1 °F 21.0 °F 40% 30.09 in 10.0 mi SSE 6.9 mph - N/A   Clear
3:52 AM 48.9 °F - 23.0 °F 36% 30.08 in 10.0 mi Variable 5.8 mph - N/A   Clear
4:52 AM 39.9 °F 35.8 °F 24.1 °F 53% 30.12 in 10.0 mi South 5.8 mph - N/A   Clear
5:52 AM 43.0 °F 37.7 °F 23.0 °F 45% 30.12 in 10.0 mi SW 9.2 mph - N/A   Clear
6:52 AM 39.9 °F 34.5 °F 21.9 °F 49% 30.15 in 10.0 mi SSW 8.1 mph - N/A   Clear
7:52 AM 39.9 °F 35.8 °F 23.0 °F 51% 30.20 in 10.0 mi SSW 5.8 mph - N/A   Clear
8:52 AM 50.0 °F - 21.9 °F 33% 30.20 in 10.0 mi South 6.9 mph - N/A   Clear
9:52 AM 59.0 °F - 25.0 °F 27% 30.19 in 10.0 mi South 8.1 mph - N/A   Clear
10:52 AM 66.0 °F - 25.0 °F 21% 30.17 in 10.0 mi South 5.8 mph - N/A   Clear
11:52 AM 73.9 °F - 27.0 °F 18% 30.14 in 10.0 mi North 4.6 mph - N/A   Clear
12:52 PM 77.0 °F - 25.0 °F 15% 30.13 in 10.0 mi NNW 6.9 mph - N/A   Clear
1:52 PM 80.1 °F - 21.0 °F 11% 30.11 in 10.0 mi North 11.5 mph - N/A   Clear
2:52 PM 82.0 °F - 17.1 °F 9% 30.08 in 10.0 mi North 10.4 mph - N/A   Clear
3:52 PM 82.9 °F - 18.0 °F 9% 30.05 in 10.0 mi North 8.1 mph - N/A   Clear
4:52 PM 82.9 °F - 15.1 °F 8% 30.06 in 10.0 mi North 8.1 mph - N/A   Clear
5:52 PM 82.0 °F - 16.0 °F 8% 30.04 in 10.0 mi North 8.1 mph - N/A   Clear
6:52 PM 79.0 °F - 18.0 °F 10% 30.06 in 10.0 mi NNE 6.9 mph - N/A   Clear
7:52 PM 66.9 °F - 21.9 °F 18% 30.08 in 10.0 mi NE 4.6 mph - N/A   Clear
8:52 PM 60.1 °F - 19.9 °F 21% 30.09 in 10.0 mi Calm Calm - N/A   Clear
9:52 PM 59.0 °F - 19.0 °F 21% 30.08 in 10.0 mi West 10.4 mph - N/A   Clear
10:52 PM 59.0 °F - 18.0 °F 20% 30.07 in 10.0 mi West 3.5 mph - N/A   Clear
11:52 PM 54.0 °F - 19.0 °F 25% 30.07 in 10.0 mi Calm Calm - N/A   Clear